Time,TemperatureF,DewpointF,PressureIn,WindDirection,WindDirectionDegrees,WindSpeedMPH,WindSpeedGustMPH,Humidity,HourlyPrecipIn,Conditions,Clouds,dailyrainin,SoftwareType,DateUTC
2013-07-29 00:02:00,63.7,47.6,29.97,North,0,0.0,0.0,56,0.00,,,0.00,WUHU216HW,2013-07-29 06:02:00,
2013-07-29 00:07:00,63.7,47.6,29.97,North,0,0.0,0.0,56,0.00,,,0.00,WUHU216HW,2013-07-29 06:07:00,
2013-07-29 00:12:00,63.7,48.2,29.97,North,0,0.0,0.0,57,0.00,,,0.00,WUHU216HW,2013-07-29 06:12:00,
2013-07-29 00:17:00,63.7,48.2,29.97,North,0,0.0,0.0,57,0.00,,,0.00,WUHU216HW,2013-07-29 06:17:00,
2013-07-29 00:22:00,63.7,48.2,29.97,North,0,0.0,0.0,57,0.00,,,0.00,WUHU216HW,2013-07-29 06:22:00,
2013-07-29 00:27:00,63.5,48.0,29.97,North,0,0.0,0.0,57,0.00,,,0.00,WUHU216HW,2013-07-29 06:27:00,
2013-07-29 00:32:00,63.4,47.8,29.97,North,0,0.0,0.0,57,0.00,,,0.00,WUHU216HW,2013-07-29 06:32:00,
2013-07-29 00:37:00,63.4,48.2,29.98,North,0,0.0,0.0,58,0.00,,,0.00,WUHU216HW,2013-07-29 06:37:00,
2013-07-29 00:42:00,63.2,48.6,29.99,North,0,0.0,0.0,59,0.00,,,0.00,WUHU216HW,2013-07-29 06:42:00,
2013-07-29 00:47:00,63.2,49.1,29.99,North,0,0.0,0.0,60,0.00,,,0.00,WUHU216HW,2013-07-29 06:47:00,
2013-07-29 00:52:00,63.0,50.6,29.99,North,0,0.0,0.0,64,0.00,,,0.00,WUHU216HW,2013-07-29 06:52:00,
2013-07-29 00:57:00,62.5,51.8,29.99,North,0,0.0,0.0,68,0.00,,,0.00,WUHU216HW,2013-07-29 06:57:00,
2013-07-29 01:02:00,61.6,50.5,29.99,North,0,0.0,0.0,67,0.00,,,0.00,WUHU216HW,2013-07-29 07:02:00,
2013-07-29 01:07:00,61.2,49.8,29.99,North,0,0.0,0.0,66,0.00,,,0.00,WUHU216HW,2013-07-29 07:07:00,
2013-07-29 01:12:00,61.0,50.9,29.99,North,0,0.0,0.0,69,0.00,,,0.00,WUHU216HW,2013-07-29 07:12:00,
2013-07-29 01:17:00,60.7,51.3,29.99,North,0,0.0,0.0,71,0.00,,,0.00,WUHU216HW,2013-07-29 07:17:00,
2013-07-29 01:22:00,60.3,51.7,29.99,North,0,0.0,0.0,73,0.00,,,0.00,WUHU216HW,2013-07-29 07:22:00,
2013-07-29 01:27:00,60.3,51.3,29.99,North,0,0.0,0.0,72,0.00,,,0.00,WUHU216HW,2013-07-29 07:27:00,
2013-07-29 01:32:00,60.5,49.5,29.99,North,0,0.0,0.0,67,0.00,,,0.00,WUHU216HW,2013-07-29 07:32:00,
2013-07-29 01:37:00,61.2,50.6,29.99,North,0,0.0,0.0,68,0.00,,,0.00,WUHU216HW,2013-07-29 07:37:00,
2013-07-29 01:42:00,61.6,50.1,29.99,North,0,0.0,0.0,66,0.00,,,0.00,WUHU216HW,2013-07-29 07:42:00,
2013-07-29 01:47:00,61.7,50.3,29.99,North,0,0.0,0.0,66,0.00,,,0.00,WUHU216HW,2013-07-29 07:47:00,
2013-07-29 01:52:00,61.6,49.7,29.99,North,0,0.0,0.0,65,0.00,,,0.00,WUHU216HW,2013-07-29 07:52:00,
2013-07-29 01:57:00,61.0,49.2,29.99,North,0,0.0,0.0,65,0.00,,,0.00,WUHU216HW,2013-07-29 07:57:00,
2013-07-29 02:02:00,60.7,49.7,29.99,North,0,0.0,0.0,67,0.00,,,0.00,WUHU216HW,2013-07-29 08:02:00,
2013-07-29 02:07:00,60.3,50.1,29.99,North,0,0.0,0.0,69,0.00,,,0.00,WUHU216HW,2013-07-29 08:07:00,
2013-07-29 02:12:00,60.3,50.1,29.99,North,0,0.0,0.0,69,0.00,,,0.00,WUHU216HW,2013-07-29 08:12:00,
2013-07-29 02:17:00,60.3,50.1,29.99,North,0,0.0,0.0,69,0.00,,,0.00,WUHU216HW,2013-07-29 08:17:00,
2013-07-29 02:22:00,60.1,50.4,29.98,North,0,0.0,0.0,70,0.00,,,0.00,WUHU216HW,2013-07-29 08:22:00,
2013-07-29 02:27:00,60.3,50.1,29.98,North,0,0.0,0.0,69,0.00,,,0.00,WUHU216HW,2013-07-29 08:27:00,
2013-07-29 02:32:00,60.5,50.3,29.98,North,0,0.0,0.0,69,0.00,,,0.00,WUHU216HW,2013-07-29 08:32:00,
2013-07-29 02:37:00,60.5,50.3,29.98,North,0,0.0,0.0,69,0.00,,,0.00,WUHU216HW,2013-07-29 08:37:00,
2013-07-29 02:42:00,60.7,50.1,29.98,North,0,0.0,0.0,68,0.00,,,0.00,WUHU216HW,2013-07-29 08:42:00,
2013-07-29 02:47:00,60.8,50.3,29.98,North,0,0.0,0.0,68,0.00,,,0.00,WUHU216HW,2013-07-29 08:47:00,
2013-07-29 02:52:00,61.0,49.2,29.99,North,0,0.0,0.0,65,0.00,,,0.00,WUHU216HW,2013-07-29 08:52:00,
2013-07-29 02:57:00,61.4,50.4,29.99,North,0,0.0,0.0,67,0.00,,,0.00,WUHU216HW,2013-07-29 08:57:00,
2013-07-29 03:02:00,61.2,51.0,29.99,North,0,0.0,0.0,69,0.00,,,0.00,WUHU216HW,2013-07-29 09:02:00,
2013-07-29 03:07:00,61.6,51.4,29.99,North,0,0.0,0.0,69,0.00,,,0.00,WUHU216HW,2013-07-29 09:07:00,
2013-07-29 03:12:00,61.0,51.7,30.00,North,0,0.0,0.0,71,0.00,,,0.00,WUHU216HW,2013-07-29 09:12:00,
2013-07-29 03:17:00,60.5,51.5,30.00,North,0,0.0,0.0,72,0.00,,,0.00,WUHU216HW,2013-07-29 09:17:00,
2013-07-29 03:22:00,60.3,50.9,30.00,North,0,0.0,0.0,71,0.00,,,0.00,WUHU216HW,2013-07-29 09:22:00,
2013-07-29 03:27:00,60.7,48.4,30.01,North,0,0.0,0.0,64,0.00,,,0.00,WUHU216HW,2013-07-29 09:27:00,
2013-07-29 03:32:00,61.4,48.7,30.01,North,0,0.0,0.0,63,0.00,,,0.00,WUHU216HW,2013-07-29 09:32:00,
2013-07-29 03:37:00,61.4,48.3,30.01,North,0,0.0,0.0,62,0.00,,,0.00,WUHU216HW,2013-07-29 09:37:00,
2013-07-29 03:42:00,61.4,48.3,30.01,North,0,0.0,0.0,62,0.00,,,0.00,WUHU216HW,2013-07-29 09:42:00,
2013-07-29 03:47:00,61.2,48.5,30.00,North,0,0.0,0.0,63,0.00,,,0.00,WUHU216HW,2013-07-29 09:47:00,
2013-07-29 03:52:00,61.2,49.0,30.01,North,0,0.0,0.0,64,0.00,,,0.00,WUHU216HW,2013-07-29 09:52:00,
2013-07-29 03:57:00,61.0,49.2,30.01,North,0,0.0,0.0,65,0.00,,,0.00,WUHU216HW,2013-07-29 09:57:00,
2013-07-29 04:02:00,60.8,49.1,30.01,North,0,0.0,0.0,65,0.00,,,0.00,WUHU216HW,2013-07-29 10:02:00,
2013-07-29 04:07:00,60.5,49.5,30.01,North,0,0.0,0.0,67,0.00,,,0.00,WUHU216HW,2013-07-29 10:07:00,
2013-07-29 04:12:00,59.9,49.4,30.01,North,0,0.0,0.0,68,0.00,,,0.00,WUHU216HW,2013-07-29 10:12:00,
2013-07-29 04:17:00,59.8,49.6,30.01,North,0,0.0,0.0,69,0.00,,,0.00,WUHU216HW,2013-07-29 10:17:00,
2013-07-29 04:22:00,59.4,49.2,30.02,North,0,0.0,0.0,69,0.00,,,0.00,WUHU216HW,2013-07-29 10:22:00,
2013-07-29 04:27:00,59.4,49.2,30.02,North,0,0.0,0.0,69,0.00,,,0.00,WUHU216HW,2013-07-29 10:27:00,
2013-07-29 04:32:00,59.0,50.0,30.02,North,0,0.0,0.0,72,0.00,,,0.00,WUHU216HW,2013-07-29 10:32:00,
2013-07-29 04:38:00,58.9,50.2,30.02,North,0,0.0,0.0,73,0.00,,,0.00,WUHU216HW,2013-07-29 10:38:00,
2013-07-29 04:43:00,58.7,50.4,30.02,North,0,0.0,0.0,74,0.00,,,0.00,WUHU216HW,2013-07-29 10:43:00,
2013-07-29 04:48:00,58.5,50.6,30.03,North,0,0.0,0.0,75,0.00,,,0.00,WUHU216HW,2013-07-29 10:48:00,
2013-07-29 04:53:00,58.3,50.4,30.03,North,0,0.0,0.0,75,0.00,,,0.00,WUHU216HW,2013-07-29 10:53:00,
2013-07-29 04:58:00,58.1,50.2,30.04,North,0,0.0,0.0,75,0.00,,,0.00,WUHU216HW,2013-07-29 10:58:00,
2013-07-29 05:03:00,58.0,50.0,30.04,North,0,0.0,0.0,75,0.00,,,0.00,WUHU216HW,2013-07-29 11:03:00,
2013-07-29 05:08:00,57.8,50.2,30.04,North,0,0.0,0.0,76,0.00,,,0.00,WUHU216HW,2013-07-29 11:08:00,
2013-07-29 05:13:00,57.4,49.9,30.05,North,0,0.0,0.0,76,0.00,,,0.00,WUHU216HW,2013-07-29 11:13:00,
2013-07-29 05:19:00,57.2,49.7,30.05,North,0,0.0,0.0,76,0.00,,,0.00,WUHU216HW,2013-07-29 11:19:00,
2013-07-29 05:24:00,56.9,49.7,30.05,North,0,0.0,0.0,77,0.00,,,0.00,WUHU216HW,2013-07-29 11:24:00,
2013-07-29 05:29:00,56.5,49.7,30.05,North,0,0.0,0.0,78,0.00,,,0.00,WUHU216HW,2013-07-29 11:29:00,
2013-07-29 05:34:00,56.3,49.9,30.06,North,0,0.0,0.0,79,0.00,,,0.00,WUHU216HW,2013-07-29 11:34:00,
2013-07-29 05:39:00,56.2,49.7,30.06,North,0,0.0,0.0,79,0.00,,,0.00,WUHU216HW,2013-07-29 11:39:00,
2013-07-29 05:45:00,56.0,49.5,30.06,North,0,0.0,0.0,79,0.00,,,0.00,WUHU216HW,2013-07-29 11:45:00,
2013-07-29 05:50:00,56.0,49.5,30.06,North,0,0.0,0.0,79,0.00,,,0.00,WUHU216HW,2013-07-29 11:50:00,
2013-07-29 05:55:00,55.8,49.3,30.07,North,0,0.0,0.0,79,0.00,,,0.00,WUHU216HW,2013-07-29 11:55:00,
2013-07-29 06:01:00,55.8,49.7,30.07,North,0,0.0,0.0,80,0.00,,,0.00,WUHU216HW,2013-07-29 12:01:00,
2013-07-29 06:06:00,55.8,49.7,30.07,North,0,0.0,0.0,80,0.00,,,0.00,WUHU216HW,2013-07-29 12:06:00,
2013-07-29 06:11:00,55.8,49.3,30.07,North,0,0.0,0.0,79,0.00,,,0.00,WUHU216HW,2013-07-29 12:11:00,
2013-07-29 06:16:00,55.8,49.3,30.07,North,0,0.0,0.0,79,0.00,,,0.00,WUHU216HW,2013-07-29 12:16:00,
2013-07-29 06:21:00,55.8,49.3,30.07,North,0,0.0,0.0,79,0.00,,,0.00,WUHU216HW,2013-07-29 12:21:00,
2013-07-29 06:26:00,55.8,49.3,30.07,North,0,0.0,0.0,79,0.00,,,0.00,WUHU216HW,2013-07-29 12:26:00,
2013-07-29 06:31:00,55.8,49.3,30.07,North,0,0.0,0.0,79,0.00,,,0.00,WUHU216HW,2013-07-29 12:31:00,
2013-07-29 06:36:00,55.8,49.3,30.07,North,0,0.0,0.0,79,0.00,,,0.00,WUHU216HW,2013-07-29 12:36:00,
2013-07-29 06:41:00,55.8,49.3,30.07,North,0,0.0,0.0,79,0.00,,,0.00,WUHU216HW,2013-07-29 12:41:00,
2013-07-29 06:46:00,55.8,49.3,30.07,North,0,0.0,0.0,79,0.00,,,0.00,WUHU216HW,2013-07-29 12:46:00,
2013-07-29 06:52:00,55.8,49.3,30.07,North,0,0.0,0.0,79,0.00,,,0.00,WUHU216HW,2013-07-29 12:52:00,
2013-07-29 06:57:00,55.8,49.3,30.07,North,0,0.0,0.0,79,0.00,,,0.00,WUHU216HW,2013-07-29 12:57:00,
2013-07-29 07:02:00,55.8,49.0,30.08,North,0,0.0,0.0,78,0.00,,,0.00,WUHU216HW,2013-07-29 13:02:00,
2013-07-29 07:07:00,55.8,49.0,30.08,North,0,0.0,0.0,78,0.00,,,0.00,WUHU216HW,2013-07-29 13:07:00,
2013-07-29 07:12:00,55.8,48.6,30.08,North,0,0.0,0.0,77,0.00,,,0.00,WUHU216HW,2013-07-29 13:12:00,
2013-07-29 07:17:00,55.8,48.6,30.08,North,0,0.0,0.0,77,0.00,,,0.00,WUHU216HW,2013-07-29 13:17:00,
2013-07-29 07:22:00,56.2,48.6,30.09,North,0,0.0,0.0,76,0.00,,,0.00,WUHU216HW,2013-07-29 13:22:00,
2013-07-29 07:27:00,56.0,48.5,30.09,North,0,0.0,0.0,76,0.00,,,0.00,WUHU216HW,2013-07-29 13:27:00,
2013-07-29 07:32:00,56.0,48.5,30.09,North,0,0.0,0.0,76,0.00,,,0.00,WUHU216HW,2013-07-29 13:32:00,
2013-07-29 07:37:00,56.0,48.2,30.09,North,0,0.0,0.0,75,0.00,,,0.00,WUHU216HW,2013-07-29 13:37:00,
2013-07-29 07:42:00,56.2,48.6,30.09,North,0,0.0,0.0,76,0.00,,,0.00,WUHU216HW,2013-07-29 13:42:00,
2013-07-29 07:47:00,56.3,48.8,30.09,North,0,0.0,0.0,76,0.00,,,0.00,WUHU216HW,2013-07-29 13:47:00,
2013-07-29 07:53:00,56.7,48.8,30.09,North,0,0.0,0.0,75,0.00,,,0.00,WUHU216HW,2013-07-29 13:53:00,
2013-07-29 07:58:00,57.1,49.1,30.09,North,0,0.0,0.0,75,0.00,,,0.00,WUHU216HW,2013-07-29 13:58:00,
2013-07-29 08:03:00,57.6,49.0,30.10,North,0,0.0,0.0,73,0.00,,,0.00,WUHU216HW,2013-07-29 14:03:00,
2013-07-29 08:08:00,58.1,49.1,30.09,North,0,0.0,0.0,72,0.00,,,0.00,WUHU216HW,2013-07-29 14:08:00,
2013-07-29 08:13:00,58.7,49.3,30.09,North,0,0.0,0.0,71,0.00,,,0.00,WUHU216HW,2013-07-29 14:13:00,
2013-07-29 08:18:00,59.0,49.3,30.09,North,0,0.0,0.0,70,0.00,,,0.00,WUHU216HW,2013-07-29 14:18:00,
2013-07-29 08:23:00,59.2,49.1,30.09,North,0,0.0,0.0,69,0.00,,,0.00,WUHU216HW,2013-07-29 14:23:00,
2013-07-29 08:28:00,59.4,49.2,30.09,North,0,0.0,0.0,69,0.00,,,0.00,WUHU216HW,2013-07-29 14:28:00,
2013-07-29 08:33:00,59.8,48.8,30.09,North,0,0.0,0.0,67,0.00,,,0.00,WUHU216HW,2013-07-29 14:33:00,
2013-07-29 08:38:00,59.8,49.2,30.09,North,0,0.0,0.0,68,0.00,,,0.00,WUHU216HW,2013-07-29 14:38:00,
2013-07-29 08:43:00,59.9,49.8,30.09,North,0,0.0,0.0,69,0.00,,,0.00,WUHU216HW,2013-07-29 14:43:00,
2013-07-29 08:48:00,60.3,49.8,30.09,North,0,0.0,0.0,68,0.00,,,0.00,WUHU216HW,2013-07-29 14:48:00,
2013-07-29 08:54:00,60.5,49.5,30.10,North,0,0.0,0.0,67,0.00,,,0.00,WUHU216HW,2013-07-29 14:54:00,
2013-07-29 08:59:00,60.7,49.3,30.10,North,0,0.0,0.0,66,0.00,,,0.00,WUHU216HW,2013-07-29 14:59:00,
2013-07-29 09:04:00,61.0,49.2,30.09,North,0,0.0,0.0,65,0.00,,,0.00,WUHU216HW,2013-07-29 15:04:00,
2013-07-29 09:10:00,61.2,49.4,30.10,North,0,0.0,0.0,65,0.00,,,0.00,WUHU216HW,2013-07-29 15:10:00,
2013-07-29 09:15:00,61.6,49.3,30.10,North,0,0.0,0.0,64,0.00,,,0.00,WUHU216HW,2013-07-29 15:15:00,
2013-07-29 09:21:00,61.6,48.9,30.10,North,0,0.0,0.0,63,0.00,,,0.00,WUHU216HW,2013-07-29 15:21:00,
2013-07-29 09:26:00,61.7,49.1,30.10,North,0,0.0,0.0,63,0.00,,,0.00,WUHU216HW,2013-07-29 15:26:00,
2013-07-29 09:31:00,61.9,49.6,30.10,North,0,0.0,0.0,64,0.00,,,0.00,WUHU216HW,2013-07-29 15:31:00,
2013-07-29 09:36:00,62.3,48.7,30.10,North,0,0.0,0.0,61,0.00,,,0.00,WUHU216HW,2013-07-29 15:36:00,
2013-07-29 09:41:00,62.3,49.2,30.10,North,0,0.0,0.0,62,0.00,,,0.00,WUHU216HW,2013-07-29 15:41:00,
2013-07-29 09:46:00,62.6,48.6,30.10,North,0,0.0,0.0,60,0.00,,,0.00,WUHU216HW,2013-07-29 15:46:00,
2013-07-29 09:51:00,63.0,48.4,30.10,North,0,0.0,0.0,59,0.00,,,0.00,WUHU216HW,2013-07-29 15:51:00,
2013-07-29 09:57:00,63.4,49.2,30.10,North,0,0.0,0.0,60,0.00,,,0.00,WUHU216HW,2013-07-29 15:57:00,
2013-07-29 10:02:00,63.4,48.2,30.10,North,0,0.0,0.0,58,0.00,,,0.00,WUHU216HW,2013-07-29 16:02:00,
2013-07-29 10:07:00,63.5,49.0,30.10,North,0,0.0,0.0,59,0.00,,,0.00,WUHU216HW,2013-07-29 16:07:00,
2013-07-29 10:12:00,63.7,48.6,30.10,North,0,0.0,0.0,58,0.00,,,0.00,WUHU216HW,2013-07-29 16:12:00,
2013-07-29 10:18:00,64.1,49.0,30.10,North,0,0.0,0.0,58,0.00,,,0.00,WUHU216HW,2013-07-29 16:18:00,
2013-07-29 10:23:00,64.1,49.4,30.09,North,0,0.0,0.0,59,0.00,,,0.00,WUHU216HW,2013-07-29 16:23:00,
2013-07-29 10:28:00,64.6,49.0,30.09,North,0,0.0,0.0,57,0.00,,,0.00,WUHU216HW,2013-07-29 16:28:00,
2013-07-29 10:33:00,64.6,49.0,30.09,North,0,0.0,0.0,57,0.00,,,0.00,WUHU216HW,2013-07-29 16:33:00,
2013-07-29 10:38:00,64.8,49.6,30.09,North,0,0.0,0.0,58,0.00,,,0.00,WUHU216HW,2013-07-29 16:38:00,
2013-07-29 10:43:00,65.2,49.0,30.09,North,0,0.0,0.0,56,0.00,,,0.00,WUHU216HW,2013-07-29 16:43:00,
2013-07-29 10:48:00,65.3,49.1,30.09,North,0,0.0,0.0,56,0.00,,,0.00,WUHU216HW,2013-07-29 16:48:00,
2013-07-29 10:53:00,65.9,49.7,30.09,North,0,0.0,0.0,56,0.00,,,0.00,WUHU216HW,2013-07-29 16:53:00,
2013-07-29 10:58:00,66.1,49.0,30.09,North,0,0.0,0.0,54,0.00,,,0.00,WUHU216HW,2013-07-29 16:58:00,
2013-07-29 11:03:00,66.4,49.2,30.09,North,0,0.0,0.0,54,0.00,,,0.00,WUHU216HW,2013-07-29 17:03:00,
2013-07-29 11:08:00,66.6,49.4,30.08,North,0,0.0,0.0,54,0.00,,,0.00,WUHU216HW,2013-07-29 17:08:00,
2013-07-29 11:14:00,67.1,49.4,30.08,North,0,0.0,0.0,53,0.00,,,0.00,WUHU216HW,2013-07-29 17:14:00,
2013-07-29 11:19:00,67.3,49.6,30.08,North,0,0.0,0.0,53,0.00,,,0.00,WUHU216HW,2013-07-29 17:19:00,
2013-07-29 11:24:00,67.7,49.4,30.08,North,0,0.0,0.0,52,0.00,,,0.00,WUHU216HW,2013-07-29 17:24:00,
2013-07-29 11:29:00,67.7,50.0,30.08,North,0,0.0,0.0,53,0.00,,,0.00,WUHU216HW,2013-07-29 17:29:00,
2013-07-29 11:35:00,68.0,49.2,30.08,North,0,0.0,0.0,51,0.00,,,0.00,WUHU216HW,2013-07-29 17:35:00,
2013-07-29 11:40:00,68.2,49.4,30.08,North,0,0.0,0.0,51,0.00,,,0.00,WUHU216HW,2013-07-29 17:40:00,
2013-07-29 11:45:00,68.4,49.6,30.08,North,0,0.0,0.0,51,0.00,,,0.00,WUHU216HW,2013-07-29 17:45:00,
2013-07-29 11:50:00,68.6,49.2,30.08,North,0,0.0,0.0,50,0.00,,,0.00,WUHU216HW,2013-07-29 17:50:00,
2013-07-29 11:55:00,68.6,49.8,30.08,North,0,0.0,0.0,51,0.00,,,0.00,WUHU216HW,2013-07-29 17:55:00,
2013-07-29 12:00:00,68.8,49.4,30.07,North,0,0.0,0.0,50,0.00,,,0.00,WUHU216HW,2013-07-29 18:00:00,
2013-07-29 12:06:00,68.8,50.0,30.07,North,0,0.0,0.0,51,0.00,,,0.00,WUHU216HW,2013-07-29 18:06:00,
2013-07-29 12:11:00,69.1,50.2,30.07,North,0,0.0,0.0,51,0.00,,,0.00,WUHU216HW,2013-07-29 18:11:00,
2013-07-29 12:16:00,69.3,50.0,30.07,North,0,0.0,0.0,50,0.00,,,0.00,WUHU216HW,2013-07-29 18:16:00,
2013-07-29 12:21:00,69.8,50.4,30.06,North,0,0.0,0.0,50,0.00,,,0.00,WUHU216HW,2013-07-29 18:21:00,
2013-07-29 12:27:00,70.2,50.1,30.06,North,0,0.0,0.0,49,0.00,,,0.00,WUHU216HW,2013-07-29 18:27:00,
2013-07-29 12:32:00,70.4,50.9,30.06,North,0,0.0,0.0,50,0.00,,,0.00,WUHU216HW,2013-07-29 18:32:00,
2013-07-29 12:37:00,70.7,50.6,30.06,North,0,0.0,0.0,49,0.00,,,0.00,WUHU216HW,2013-07-29 18:37:00,
2013-07-29 12:42:00,70.9,50.8,30.06,North,0,0.0,0.0,49,0.00,,,0.00,WUHU216HW,2013-07-29 18:42:00,
2013-07-29 12:47:00,70.9,50.8,30.06,North,0,0.0,0.0,49,0.00,,,0.00,WUHU216HW,2013-07-29 18:47:00,
2013-07-29 12:53:00,71.1,50.3,30.06,North,0,0.0,0.0,48,0.00,,,0.00,WUHU216HW,2013-07-29 18:53:00,
2013-07-29 12:58:00,71.3,50.5,30.06,North,0,0.0,0.0,48,0.00,,,0.00,WUHU216HW,2013-07-29 18:58:00,
2013-07-29 13:03:00,71.6,50.9,30.05,North,0,0.0,0.0,48,0.00,,,0.00,WUHU216HW,2013-07-29 19:03:00,
2013-07-29 13:08:00,71.8,51.0,30.05,North,0,0.0,0.0,48,0.00,,,0.00,WUHU216HW,2013-07-29 19:08:00,
2013-07-29 13:13:00,72.0,50.6,30.05,North,0,0.0,0.0,47,0.00,,,0.00,WUHU216HW,2013-07-29 19:13:00,
2013-07-29 13:19:00,72.4,50.9,30.05,North,0,0.0,0.0,47,0.00,,,0.00,WUHU216HW,2013-07-29 19:19:00,
2013-07-29 13:24:00,72.7,50.6,30.05,North,0,0.0,0.0,46,0.00,,,0.00,WUHU216HW,2013-07-29 19:24:00,
2013-07-29 13:29:00,73.1,50.3,30.05,North,0,0.0,0.0,45,0.00,,,0.00,WUHU216HW,2013-07-29 19:29:00,
2013-07-29 13:34:00,73.1,50.9,30.04,North,0,0.0,0.0,46,0.00,,,0.00,WUHU216HW,2013-07-29 19:34:00,
2013-07-29 13:39:00,73.4,50.7,30.04,North,0,0.0,0.0,45,0.00,,,0.00,WUHU216HW,2013-07-29 19:39:00,
2013-07-29 13:44:00,73.4,50.7,30.04,North,0,0.0,0.0,45,0.00,,,0.00,WUHU216HW,2013-07-29 19:44:00,
2013-07-29 13:49:00,74.0,50.6,30.04,North,0,0.0,0.0,44,0.00,,,0.00,WUHU216HW,2013-07-29 19:49:00,
2013-07-29 13:54:00,74.3,51.0,30.04,North,0,0.0,0.0,44,0.00,,,0.00,WUHU216HW,2013-07-29 19:54:00,
2013-07-29 13:59:00,74.5,51.1,30.04,North,0,0.0,0.0,44,0.00,,,0.00,WUHU216HW,2013-07-29 19:59:00,
2013-07-29 14:04:00,74.5,51.1,30.03,North,0,0.0,0.0,44,0.00,,,0.00,WUHU216HW,2013-07-29 20:04:00,
2013-07-29 14:10:00,74.9,50.9,30.03,North,0,0.0,0.0,43,0.00,,,0.00,WUHU216HW,2013-07-29 20:10:00,
2013-07-29 14:15:00,75.1,51.6,30.03,North,0,0.0,0.0,44,0.00,,,0.00,WUHU216HW,2013-07-29 20:15:00,
2013-07-29 14:20:00,75.4,50.7,30.03,North,0,0.0,0.0,42,0.00,,,0.00,WUHU216HW,2013-07-29 20:20:00,
2013-07-29 14:25:00,75.2,50.6,30.03,North,0,0.0,0.0,42,0.00,,,0.00,WUHU216HW,2013-07-29 20:25:00,
2013-07-29 14:30:00,75.4,51.3,30.03,North,0,0.0,0.0,43,0.00,,,0.00,WUHU216HW,2013-07-29 20:30:00,
2013-07-29 14:35:00,76.0,50.6,30.02,North,0,0.0,0.0,41,0.00,,,0.00,WUHU216HW,2013-07-29 20:35:00,
2013-07-29 14:40:00,76.3,51.0,30.02,North,0,0.0,0.0,41,0.00,,,0.00,WUHU216HW,2013-07-29 20:40:00,
2013-07-29 14:45:00,76.7,50.6,30.02,North,0,0.0,0.0,40,0.00,,,0.00,WUHU216HW,2013-07-29 20:45:00,
2013-07-29 14:50:00,76.7,50.6,30.02,North,0,0.0,0.0,40,0.00,,,0.00,WUHU216HW,2013-07-29 20:50:00,
2013-07-29 14:56:00,76.9,50.8,30.02,North,0,0.0,0.0,40,0.00,,,0.00,WUHU216HW,2013-07-29 20:56:00,
2013-07-29 15:01:00,77.0,50.9,30.02,North,0,0.0,0.0,40,0.00,,,0.00,WUHU216HW,2013-07-29 21:01:00,
2013-07-29 15:06:00,77.4,51.3,30.01,North,0,0.0,0.0,40,0.00,,,0.00,WUHU216HW,2013-07-29 21:06:00,
2013-07-29 15:11:00,77.9,51.0,30.01,North,0,0.0,0.0,39,0.00,,,0.00,WUHU216HW,2013-07-29 21:11:00,
2013-07-29 15:16:00,78.1,51.1,30.01,North,0,0.0,0.0,39,0.00,,,0.00,WUHU216HW,2013-07-29 21:16:00,
2013-07-29 15:21:00,78.3,50.6,30.00,North,0,0.0,0.0,38,0.00,,,0.00,WUHU216HW,2013-07-29 21:21:00,
2013-07-29 15:26:00,78.3,50.6,30.00,North,0,0.0,0.0,38,0.00,,,0.00,WUHU216HW,2013-07-29 21:26:00,
2013-07-29 15:31:00,78.7,50.0,30.00,North,0,0.0,0.0,37,0.00,,,0.00,WUHU216HW,2013-07-29 21:31:00,
2013-07-29 15:36:00,78.8,50.2,30.00,North,0,0.0,0.0,37,0.00,,,0.00,WUHU216HW,2013-07-29 21:36:00,
2013-07-29 15:42:00,78.8,48.7,29.99,North,0,0.0,0.0,35,0.00,,,0.00,WUHU216HW,2013-07-29 21:42:00,
2013-07-29 15:47:00,79.6,49.3,29.99,North,0,0.0,0.0,35,0.00,,,0.00,WUHU216HW,2013-07-29 21:47:00,
2013-07-29 15:52:00,79.9,49.7,29.99,North,0,0.0,0.0,35,0.00,,,0.00,WUHU216HW,2013-07-29 21:52:00,
2013-07-29 15:57:00,80.3,49.2,29.99,North,0,0.0,0.0,34,0.00,,,0.00,WUHU216HW,2013-07-29 21:57:00,
2013-07-29 16:02:00,81.0,49.1,29.99,North,0,0.0,0.0,33,0.00,,,0.00,WUHU216HW,2013-07-29 22:02:00,
2013-07-29 16:08:00,80.8,49.7,29.99,North,0,0.0,0.0,34,0.00,,,0.00,WUHU216HW,2013-07-29 22:08:00,
2013-07-29 16:13:00,81.0,49.1,29.99,North,0,0.0,0.0,33,0.00,,,0.00,WUHU216HW,2013-07-29 22:13:00,
2013-07-29 16:18:00,81.2,48.4,29.99,North,0,0.0,0.0,32,0.00,,,0.00,WUHU216HW,2013-07-29 22:18:00,
2013-07-29 16:23:00,81.7,48.9,29.98,North,0,0.0,0.0,32,0.00,,,0.00,WUHU216HW,2013-07-29 22:23:00,
2013-07-29 16:28:00,81.5,49.5,29.98,North,0,0.0,0.0,33,0.00,,,0.00,WUHU216HW,2013-07-29 22:28:00,
2013-07-29 16:33:00,81.5,49.5,29.98,North,0,0.0,0.0,33,0.00,,,0.00,WUHU216HW,2013-07-29 22:33:00,
2013-07-29 16:38:00,81.5,49.5,29.98,North,0,0.0,0.0,33,0.00,,,0.00,WUHU216HW,2013-07-29 22:38:00,
2013-07-29 16:43:00,81.2,48.4,29.98,North,0,0.0,0.0,32,0.00,,,0.00,WUHU216HW,2013-07-29 22:43:00,
2013-07-29 16:48:00,81.0,49.1,29.98,North,0,0.0,0.0,33,0.00,,,0.00,WUHU216HW,2013-07-29 22:48:00,
2013-07-29 16:53:00,81.7,48.9,29.99,North,0,0.0,0.0,32,0.00,,,0.00,WUHU216HW,2013-07-29 22:53:00,
2013-07-29 16:59:00,82.1,48.4,29.98,North,0,0.0,0.0,31,0.00,,,0.00,WUHU216HW,2013-07-29 22:59:00,
2013-07-29 17:04:00,82.4,47.9,29.99,North,0,0.0,0.0,30,0.00,,,0.00,WUHU216HW,2013-07-29 23:04:00,
2013-07-29 17:09:00,83.2,48.5,29.98,North,0,0.0,0.0,30,0.00,,,0.00,WUHU216HW,2013-07-29 23:09:00,
2013-07-29 17:14:00,83.2,47.5,29.98,North,0,0.0,0.0,29,0.00,,,0.00,WUHU216HW,2013-07-29 23:14:00,
2013-07-29 17:19:00,83.0,46.3,29.98,North,0,0.0,0.0,28,0.00,,,0.00,WUHU216HW,2013-07-29 23:19:00,
2013-07-29 17:24:00,82.8,46.1,29.98,North,0,0.0,0.0,28,0.00,,,0.00,WUHU216HW,2013-07-29 23:24:00,
2013-07-29 17:29:00,83.5,45.7,29.98,North,0,0.0,0.0,27,0.00,,,0.00,WUHU216HW,2013-07-29 23:29:00,
2013-07-29 17:34:00,83.2,44.3,29.98,North,0,0.0,0.0,26,0.00,,,0.00,WUHU216HW,2013-07-29 23:34:00,
2013-07-29 17:39:00,83.2,43.3,29.98,North,0,0.0,0.0,25,0.00,,,0.00,WUHU216HW,2013-07-29 23:39:00,
2013-07-29 17:45:00,84.2,43.1,29.97,North,0,0.0,0.0,24,0.00,,,0.00,WUHU216HW,2013-07-29 23:45:00,
2013-07-29 17:50:00,85.0,42.7,29.98,North,0,0.0,0.0,23,0.00,,,0.00,WUHU216HW,2013-07-29 23:50:00,
2013-07-29 17:55:00,84.2,43.1,29.98,North,0,0.0,0.0,24,0.00,,,0.00,WUHU216HW,2013-07-29 23:55:00,
2013-07-29 18:00:00,83.9,42.9,29.98,North,0,0.0,0.0,24,0.00,,,0.00,WUHU216HW,2013-07-30 00:00:00,
2013-07-29 18:05:00,84.2,46.4,29.98,North,0,0.0,0.0,27,0.00,,,0.00,WUHU216HW,2013-07-30 00:05:00,
2013-07-29 18:10:00,83.9,44.9,29.97,North,0,0.0,0.0,26,0.00,,,0.00,WUHU216HW,2013-07-30 00:10:00,
2013-07-29 18:15:00,84.1,45.1,29.97,North,0,0.0,0.0,26,0.00,,,0.00,WUHU216HW,2013-07-30 00:15:00,
2013-07-29 18:20:00,84.2,47.3,29.97,North,0,0.0,0.0,28,0.00,,,0.00,WUHU216HW,2013-07-30 00:20:00,
2013-07-29 18:25:00,83.9,46.0,29.97,North,0,0.0,0.0,27,0.00,,,0.00,WUHU216HW,2013-07-30 00:25:00,
2013-07-29 18:30:00,83.7,46.9,29.97,North,0,0.0,0.0,28,0.00,,,0.00,WUHU216HW,2013-07-30 00:30:00,
2013-07-29 18:35:00,83.5,46.7,29.97,North,0,0.0,0.0,28,0.00,,,0.00,WUHU216HW,2013-07-30 00:35:00,
2013-07-29 18:41:00,83.0,46.3,29.97,North,0,0.0,0.0,28,0.00,,,0.00,WUHU216HW,2013-07-30 00:41:00,
2013-07-29 18:46:00,83.0,46.3,29.98,North,0,0.0,0.0,28,0.00,,,0.00,WUHU216HW,2013-07-30 00:46:00,
2013-07-29 18:51:00,82.4,45.8,29.97,North,0,0.0,0.0,28,0.00,,,0.00,WUHU216HW,2013-07-30 00:51:00,
2013-07-29 18:57:00,82.4,45.8,29.98,North,0,0.0,0.0,28,0.00,,,0.00,WUHU216HW,2013-07-30 00:57:00,
2013-07-29 19:02:00,81.9,45.4,29.98,North,0,0.0,0.0,28,0.00,,,0.00,WUHU216HW,2013-07-30 01:02:00,
2013-07-29 19:07:00,81.9,46.5,29.98,North,0,0.0,0.0,29,0.00,,,0.00,WUHU216HW,2013-07-30 01:07:00,
2013-07-29 19:12:00,81.5,47.2,29.98,North,0,0.0,0.0,30,0.00,,,0.00,WUHU216HW,2013-07-30 01:12:00,
2013-07-29 19:17:00,81.4,47.0,29.98,North,0,0.0,0.0,30,0.00,,,0.00,WUHU216HW,2013-07-30 01:17:00,
2013-07-29 19:23:00,81.7,48.1,29.98,North,0,0.0,0.0,31,0.00,,,0.00,WUHU216HW,2013-07-30 01:23:00,
2013-07-29 19:28:00,81.7,47.4,29.98,North,0,0.0,0.0,30,0.00,,,0.00,WUHU216HW,2013-07-30 01:28:00,
2013-07-29 19:33:00,81.7,48.1,29.98,North,0,0.0,0.0,31,0.00,,,0.00,WUHU216HW,2013-07-30 01:33:00,
2013-07-29 19:38:00,81.7,47.4,29.98,North,0,0.0,0.0,30,0.00,,,0.00,WUHU216HW,2013-07-30 01:38:00,
2013-07-29 19:43:00,80.3,47.7,29.99,North,0,0.0,0.0,32,0.00,,,0.00,WUHU216HW,2013-07-30 01:43:00,
2013-07-29 19:48:00,80.3,47.7,29.99,North,0,0.0,0.0,32,0.00,,,0.00,WUHU216HW,2013-07-30 01:48:00,
2013-07-29 19:53:00,79.4,47.6,29.99,North,0,0.0,0.0,33,0.00,,,0.00,WUHU216HW,2013-07-30 01:53:00,
2013-07-29 19:59:00,79.0,47.4,29.99,North,0,0.0,0.0,33,0.00,,,0.00,WUHU216HW,2013-07-30 01:59:00,
2013-07-29 20:04:00,78.5,46.8,29.99,North,0,0.0,0.0,33,0.00,,,0.00,WUHU216HW,2013-07-30 02:04:00,
2013-07-29 20:09:00,78.3,47.4,29.99,North,0,0.0,0.0,34,0.00,,,0.00,WUHU216HW,2013-07-30 02:09:00,
2013-07-29 20:14:00,77.8,47.0,29.99,North,0,0.0,0.0,34,0.00,,,0.00,WUHU216HW,2013-07-30 02:14:00,
2013-07-29 20:19:00,77.2,46.5,29.99,North,0,0.0,0.0,34,0.00,,,0.00,WUHU216HW,2013-07-30 02:19:00,
2013-07-29 20:24:00,76.9,47.0,29.99,North,0,0.0,0.0,35,0.00,,,0.00,WUHU216HW,2013-07-30 02:24:00,
2013-07-29 20:30:00,76.3,46.5,29.99,North,0,0.0,0.0,35,0.00,,,0.00,WUHU216HW,2013-07-30 02:30:00,
2013-07-29 20:35:00,76.0,46.2,29.99,North,0,0.0,0.0,35,0.00,,,0.00,WUHU216HW,2013-07-30 02:35:00,
2013-07-29 20:40:00,75.6,47.3,29.99,North,0,0.0,0.0,37,0.00,,,0.00,WUHU216HW,2013-07-30 02:40:00,
2013-07-29 20:45:00,75.2,47.1,29.99,North,0,0.0,0.0,37,0.00,,,0.00,WUHU216HW,2013-07-30 02:45:00,
2013-07-29 20:50:00,74.7,47.4,29.99,North,0,0.0,0.0,38,0.00,,,0.00,WUHU216HW,2013-07-30 02:50:00,
2013-07-29 20:55:00,74.5,47.2,29.99,North,0,0.0,0.0,38,0.00,,,0.00,WUHU216HW,2013-07-30 02:55:00,
2013-07-29 21:00:00,74.0,47.4,30.00,North,0,0.0,0.0,39,0.00,,,0.00,WUHU216HW,2013-07-30 03:00:00,
2013-07-29 21:06:00,73.3,47.5,30.00,North,0,0.0,0.0,40,0.00,,,0.00,WUHU216HW,2013-07-30 03:06:00,
2013-07-29 21:11:00,72.9,47.8,30.00,North,0,0.0,0.0,41,0.00,,,0.00,WUHU216HW,2013-07-30 03:11:00,
2013-07-29 21:16:00,72.7,47.6,30.00,North,0,0.0,0.0,41,0.00,,,0.00,WUHU216HW,2013-07-30 03:16:00,
2013-07-29 21:22:00,72.5,48.1,30.01,North,0,0.0,0.0,42,0.00,,,0.00,WUHU216HW,2013-07-30 03:22:00,
2013-07-29 21:27:00,72.4,47.9,30.01,North,0,0.0,0.0,42,0.00,,,0.00,WUHU216HW,2013-07-30 03:27:00,
2013-07-29 21:32:00,72.4,47.9,30.01,North,0,0.0,0.0,42,0.00,,,0.00,WUHU216HW,2013-07-30 03:32:00,
2013-07-29 21:37:00,72.0,47.6,30.01,North,0,0.0,0.0,42,0.00,,,0.00,WUHU216HW,2013-07-30 03:37:00,
2013-07-29 21:42:00,71.6,47.3,30.01,North,0,0.0,0.0,42,0.00,,,0.00,WUHU216HW,2013-07-30 03:42:00,
2013-07-29 21:47:00,70.9,47.3,30.02,North,0,0.0,0.0,43,0.00,,,0.00,WUHU216HW,2013-07-30 03:47:00,
2013-07-29 21:52:00,70.2,47.2,30.02,North,0,0.0,0.0,44,0.00,,,0.00,WUHU216HW,2013-07-30 03:52:00,
2013-07-29 21:58:00,69.3,46.4,30.02,North,0,0.0,0.0,44,0.00,,,0.00,WUHU216HW,2013-07-30 03:58:00,
2013-07-29 22:01:00,68.9,46.0,30.02,North,0,0.0,0.0,44,0.00,,,0.00,WUHU216HW,2013-07-30 04:01:00,
2013-07-29 22:02:00,68.8,45.3,30.02,North,0,0.0,0.0,43,0.00,,,0.00,WUHU216HW,2013-07-30 04:02:00,
2013-07-29 22:08:00,68.2,45.4,30.03,North,0,0.0,0.0,44,0.00,,,0.00,WUHU216HW,2013-07-30 04:08:00,
2013-07-29 22:13:00,67.9,45.1,30.03,North,0,0.0,0.0,44,0.00,,,0.00,WUHU216HW,2013-07-30 04:13:00,
2013-07-29 22:18:00,67.3,45.2,30.03,North,0,0.0,0.0,45,0.00,,,0.00,WUHU216HW,2013-07-30 04:18:00,
2013-07-29 22:23:00,67.3,45.7,30.03,North,0,0.0,0.0,46,0.00,,,0.00,WUHU216HW,2013-07-30 04:23:00,
2013-07-29 22:28:00,67.3,45.2,30.03,North,0,0.0,0.0,45,0.00,,,0.00,WUHU216HW,2013-07-30 04:28:00,
2013-07-29 22:33:00,66.8,45.3,30.04,North,0,0.0,0.0,46,0.00,,,0.00,WUHU216HW,2013-07-30 04:33:00,
2013-07-29 22:38:00,66.2,44.8,30.04,North,0,0.0,0.0,46,0.00,,,0.00,WUHU216HW,2013-07-30 04:38:00,
2013-07-29 22:43:00,65.7,44.8,30.04,North,0,0.0,0.0,47,0.00,,,0.00,WUHU216HW,2013-07-30 04:43:00,
2013-07-29 22:47:00,65.3,45.1,30.04,North,0,0.0,0.0,48,0.00,,,0.00,WUHU216HW,2013-07-30 04:47:00,
2013-07-29 22:53:00,65.0,45.4,30.04,North,0,0.0,0.0,49,0.00,,,0.00,WUHU216HW,2013-07-30 04:53:00,
2013-07-29 22:58:00,64.6,45.0,30.05,North,0,0.0,0.0,49,0.00,,,0.00,WUHU216HW,2013-07-30 04:58:00,
2013-07-29 23:02:00,64.4,45.4,30.05,North,0,0.0,0.0,50,0.00,,,0.00,WUHU216HW,2013-07-30 05:02:00,
2013-07-29 23:07:00,64.1,45.6,30.05,North,0,0.0,0.0,51,0.00,,,0.00,WUHU216HW,2013-07-30 05:07:00,
2013-07-29 23:12:00,63.9,46.4,30.05,North,0,0.0,0.0,53,0.00,,,0.00,WUHU216HW,2013-07-30 05:12:00,
2013-07-29 23:17:00,63.7,46.2,30.05,North,0,0.0,0.0,53,0.00,,,0.00,WUHU216HW,2013-07-30 05:17:00,
2013-07-29 23:22:00,63.5,46.5,30.05,North,0,0.0,0.0,54,0.00,,,0.00,WUHU216HW,2013-07-30 05:22:00,
2013-07-29 23:27:00,63.4,45.8,30.06,North,0,0.0,0.0,53,0.00,,,0.00,WUHU216HW,2013-07-30 05:27:00,
2013-07-29 23:32:00,63.0,46.0,30.06,North,0,0.0,0.0,54,0.00,,,0.00,WUHU216HW,2013-07-30 05:32:00,
2013-07-29 23:38:00,62.6,46.2,30.06,North,0,0.0,0.0,55,0.00,,,0.00,WUHU216HW,2013-07-30 05:38:00,
2013-07-29 23:43:00,62.6,46.6,30.06,North,0,0.0,0.0,56,0.00,,,0.00,WUHU216HW,2013-07-30 05:43:00,
2013-07-29 23:48:00,62.5,46.0,30.06,North,0,0.0,0.0,55,0.00,,,0.00,WUHU216HW,2013-07-30 05:48:00,
2013-07-29 23:53:00,62.3,45.8,30.07,North,0,0.0,0.0,55,0.00,,,0.00,WUHU216HW,2013-07-30 05:53:00,
2013-07-29 23:58:00,61.9,45.6,30.07,North,0,0.0,0.0,55,0.00,,,0.00,WUHU216HW,2013-07-30 05:58:00,